Sedona, AZ

11:11 AM MST on November 13, 2019 (GMT -0700)
Sedona

Weather History for KSEZ - October, 2019

Change the Weather History Date:

Wednesday, October 23, 2019

  Actual Average Record
Temperature  
Mean Temperature 64 °F -  
Max Temperature 77 °F 74 °F 89 °F (2017)
Min Temperature 51 °F 45 °F 48 °F (2010)
Degree Days  
Heating Degree Days 1    
Growing Degree Days 14 (Base 50)    
Moisture  
Dew Point 22 °F    
Average Humidity 21    
Maximum Humidity 33    
Minimum Humidity 12    
Precipitation  
Precipitation 0.00 in - - ()
Sea Level Pressure  
Sea Level Pressure 30.09 in    
Wind  
Wind Speed 11 mph (NNE)    
Max Wind Speed 17 mph    
Max Gust Speed 23 mph    
Visibility 10 miles    
Events      
Averages and records for this station are not official NWS values.
T = Trace of Precipitation, MM = Missing Value Source: NWS Daily Summary

Daily Weather History Graph

Daily Weather History Graph

Search for Another Location

Airport or City:

Astronomy

Oct. 23, 2019 Rise Set
Actual Time 6:39 AM MST 5:42 PM MST
Civil Twilight 6:13 AM MST 6:08 PM MST
Nautical Twilight 5:44 AM MST 6:38 PM MST
Astronomical Twilight 5:15 AM MST 7:07 PM MST
Moon 1:19 AM MST (10/23) 3:20 PM MST (10/23)
Length of Visible Light 11h 54m
Length of Day
11h 03m
Waning Crescent, 25% of the Moon is Illuminated
Oct 23
Waning Crescent
Oct 27
New
Nov 4
First Quarter
Nov 12
Full
Nov 19
Last Quarter

Hourly Weather History & Observations

Time (MST) Temp. Dew Point Humidity Pressure Visibility Wind Dir Wind Speed Gust Speed Precip Events Conditions
12:15 AM 59.0 °F 24.8 °F 27% 30.15 in 10.0 mi NNE 15.0 mph - N/A   Clear
12:35 AM 59.0 °F 24.8 °F 27% 30.15 in 10.0 mi NNE 13.8 mph - N/A   Clear
12:55 AM 59.0 °F 23.0 °F 25% 30.14 in 10.0 mi NNE 16.1 mph - N/A   Clear
1:15 AM 57.2 °F 23.0 °F 27% 30.15 in 10.0 mi NNE 13.8 mph - N/A   Clear
1:35 AM 57.2 °F 23.0 °F 27% 30.15 in 10.0 mi NNE 13.8 mph - N/A   Clear
1:55 AM 57.2 °F 23.0 °F 27% 30.15 in 10.0 mi NE 15.0 mph 19.6 mph N/A   Clear
2:15 AM 59.0 °F 23.0 °F 25% 30.14 in 10.0 mi NE 17.3 mph - N/A   Clear
2:35 AM 57.2 °F 23.0 °F 27% 30.14 in 10.0 mi NE 15.0 mph - N/A   Clear
2:55 AM 55.4 °F 23.0 °F 29% 30.13 in 10.0 mi NE 12.7 mph - N/A   Clear
3:15 AM 55.4 °F 23.0 °F 29% 30.13 in 10.0 mi NNE 10.4 mph - N/A   Clear
3:35 AM 55.4 °F 23.0 °F 29% 30.12 in 10.0 mi NNE 12.7 mph - N/A   Clear
4:15 AM 53.6 °F 23.0 °F 30% 30.12 in 10.0 mi NNE 11.5 mph - N/A   Clear
4:35 AM 55.4 °F 23.0 °F 29% 30.12 in 10.0 mi NNE 16.1 mph - N/A   Clear
4:55 AM 55.4 °F 24.8 °F 31% 30.11 in 10.0 mi NE 13.8 mph - N/A   Clear
5:15 AM 53.6 °F 24.8 °F 33% 30.12 in 10.0 mi NNE 10.4 mph - N/A   Clear
5:35 AM 55.4 °F 24.8 °F 31% 30.12 in 10.0 mi NE 9.2 mph - N/A   Clear
5:55 AM 53.6 °F 24.8 °F 33% 30.11 in 10.0 mi NE 4.6 mph - N/A   Clear
6:15 AM 53.6 °F 24.8 °F 33% 30.12 in 10.0 mi NNE 12.7 mph - N/A   Clear
6:35 AM 53.6 °F 23.0 °F 30% 30.13 in 10.0 mi NE 10.4 mph - N/A   Clear
6:55 AM 51.8 °F 23.0 °F 33% 30.12 in 10.0 mi NNE 10.4 mph - N/A   Clear
7:15 AM 53.6 °F 23.0 °F 30% 30.13 in 10.0 mi NE 6.9 mph - N/A   Clear
7:35 AM 59.0 °F 23.0 °F 25% 30.13 in 10.0 mi ENE 5.8 mph - N/A   Clear
7:55 AM 59.0 °F 23.0 °F 25% 30.14 in 10.0 mi NNE 5.8 mph - N/A   Clear
8:15 AM 59.0 °F 23.0 °F 25% 30.15 in 10.0 mi NE 4.6 mph - N/A   Clear
8:35 AM 60.8 °F 23.0 °F 23% 30.15 in 10.0 mi Calm Calm - N/A   Clear
8:55 AM 62.6 °F 24.8 °F 24% 30.15 in 10.0 mi Calm Calm - N/A   Clear
9:35 AM 66.2 °F 26.6 °F 23% 30.15 in 10.0 mi SSE 4.6 mph - N/A   Clear
9:55 AM 69.8 °F 26.6 °F 20% 30.14 in 10.0 mi SSE 5.8 mph - N/A   Clear
10:15 AM 69.8 °F 26.6 °F 20% 30.13 in 10.0 mi South 4.6 mph - N/A   Clear
10:35 AM 69.8 °F 26.6 °F 20% 30.13 in 10.0 mi Calm Calm - N/A   Clear
10:55 AM 69.8 °F 24.8 °F 18% 30.13 in 10.0 mi South 4.6 mph - N/A   Clear
11:15 AM 75.2 °F 24.8 °F 15% 30.12 in 10.0 mi South 8.1 mph - N/A   Clear
11:35 AM 75.2 °F 24.8 °F 15% 30.11 in 10.0 mi SSW 5.8 mph - N/A   Clear
11:55 AM 73.4 °F 24.8 °F 16% 30.10 in 10.0 mi Calm Calm - N/A   Clear
12:15 PM 73.4 °F 23.0 °F 15% 30.09 in 10.0 mi SSW 4.6 mph - N/A   Clear
12:35 PM 77.0 °F 24.8 °F 14% 30.08 in 10.0 mi SSW 4.6 mph - N/A   Clear
12:55 PM 77.0 °F 23.0 °F 13% 30.07 in 10.0 mi South 8.1 mph - N/A   Clear
1:15 PM 73.4 °F 23.0 °F 15% 30.07 in 10.0 mi South 4.6 mph - N/A   Clear
1:35 PM 73.4 °F 23.0 °F 15% 30.06 in 10.0 mi West 8.1 mph - N/A   Clear
1:55 PM 75.2 °F 23.0 °F 14% 30.04 in 10.0 mi Calm Calm - N/A   Clear
2:15 PM 75.2 °F 23.0 °F 14% 30.04 in 10.0 mi West 8.1 mph - N/A   Clear
2:35 PM 73.4 °F 23.0 °F 15% 30.04 in 10.0 mi West 4.6 mph - N/A   Clear
2:55 PM 75.2 °F 23.0 °F 14% 30.03 in 10.0 mi SSE 6.9 mph - N/A   Clear
3:15 PM 75.2 °F 24.8 °F 15% 30.03 in 10.0 mi Calm Calm - N/A   Clear
3:35 PM 77.0 °F 26.6 °F 16% 30.02 in 10.0 mi WSW 4.6 mph - N/A   Clear
3:55 PM 77.0 °F 26.6 °F 16% 30.02 in 10.0 mi WNW 8.1 mph - N/A   Clear
4:15 PM 77.0 °F 24.8 °F 14% 30.02 in 10.0 mi NW 6.9 mph - N/A   Clear
4:35 PM 77.0 °F 24.8 °F 14% 30.01 in 10.0 mi North 6.9 mph - N/A   Clear
4:55 PM 75.2 °F 23.0 °F 14% 30.02 in 10.0 mi NW 10.4 mph - N/A   Clear
5:15 PM 73.4 °F 17.6 °F 12% 30.02 in 10.0 mi NNW 9.2 mph - N/A   Clear
5:35 PM 71.6 °F 17.6 °F 13% 30.01 in 10.0 mi NW 12.7 mph 17.3 mph N/A   Scattered Clouds
5:55 PM 69.8 °F 17.6 °F 14% 30.02 in 10.0 mi NNW 12.7 mph - N/A   Mostly Cloudy
6:15 PM 68.0 °F 23.0 °F 18% 30.03 in 10.0 mi North 12.7 mph 17.3 mph N/A   Mostly Cloudy
6:35 PM 68.0 °F 23.0 °F 18% 30.04 in 10.0 mi NE 10.4 mph 16.1 mph N/A   Overcast
6:55 PM 68.0 °F 23.0 °F 18% 30.04 in 10.0 mi NE 13.8 mph 17.3 mph N/A   Mostly Cloudy
7:15 PM 66.2 °F 23.0 °F 19% 30.04 in 10.0 mi NE 15.0 mph 19.6 mph N/A   Mostly Cloudy
7:35 PM 64.4 °F 21.2 °F 19% 30.05 in 10.0 mi NE 16.1 mph 19.6 mph N/A   Scattered Clouds
7:55 PM 64.4 °F 21.2 °F 19% 30.06 in 10.0 mi NE 13.8 mph 23.0 mph N/A   Clear
8:15 PM 64.4 °F 21.2 °F 19% 30.06 in 10.0 mi NE 13.8 mph 20.7 mph N/A   Clear
8:35 PM 64.4 °F 19.4 °F 18% 30.06 in 10.0 mi NNE 11.5 mph - N/A   Clear
8:55 PM 62.6 °F 19.4 °F 19% 30.06 in 10.0 mi NNE 10.4 mph - N/A   Clear
9:15 PM 62.6 °F 19.4 °F 19% 30.07 in 10.0 mi NE 11.5 mph - N/A   Clear
9:35 PM 62.6 °F 15.8 °F 16% 30.08 in 10.0 mi NE 12.7 mph 16.1 mph N/A   Clear
9:55 PM 62.6 °F 15.8 °F 16% 30.09 in 10.0 mi NE 12.7 mph - N/A   Clear
10:15 PM 62.6 °F 15.8 °F 16% 30.09 in 10.0 mi NE 9.2 mph - N/A   Clear
10:35 PM 60.8 °F 15.8 °F 17% 30.09 in 10.0 mi NE 11.5 mph - N/A   Clear
10:55 PM 60.8 °F 14.0 °F 16% 30.09 in 10.0 mi NNE 11.5 mph - N/A   Clear
11:15 PM 57.2 °F 17.6 °F 21% 30.09 in 10.0 mi NNE 15.0 mph - N/A   Clear
11:35 PM 57.2 °F 15.8 °F 20% 30.09 in 10.0 mi NNE 12.7 mph - N/A   Clear
11:55 PM 59.0 °F 14.0 °F 17% 30.10 in 10.0 mi NNE 12.7 mph - N/A   Clear